Main page
METAR-TAF:

METAR-TAF

Airports :

Rajkot Airport

Rajkot, India

latitude: 22-18N, longitude: 070-47E, elevation: 134 m

Current weather observation

The report was made 3 hours and 49 minutes ago, at 14:00 UTC
Wind 6 kt from the Northeast
Temperature 29°C
Humidity 40%
Pressure 1013 hPa
Visibility: 6000 m

METAR: VARK 151400Z 05006KT 6000 NSC 29/14 Q1013

Time: 23:19 (17:49 UTC)


TAF: missing

Weather observations and forecasts of more than 4000 airports (METAR and TAF reports).

The available stations are represented by yellow and red dots on the map.

Hover mouse over dot to see the name of the station.

Then click to see weather observations and forecasts.

To change the map : click on the green buttons with a black cross to zoom in, on the green button with a dash to zoom out, or on the green arrows for adjacent maps.


METAR-TAF: